[[{"header":{"parameterUnit":"m.s-1","parameterCategory":2,"la1":30.2992,"la2":30.254,"lo1":-89.0895,"lo2":-89.0443,"dy":0.0025,"dx":0.0025,"nx":19,"ny":19,"refTime":"2026-03-19T09:00:00:Z","depth":"0","parameterNumber":2,"parameterNumberName":"U-component_of_CURRENTS"},"data":[0,0,0,0.3531,0.3533,0.36,0.36,0.3675,0.3675,0,0,0,0,0,0,0,0,0,0,0,0.3499,0.35,0.3531,0.3533,0.36,0.36,0.3674,0.3675,0,0,0,0,0,0,0,0,0,0,0,0.3499,0.35,0.3501,0.3533,0.36,0.36,0.3674,0.3623,0,0,0,0,0,0,0,0,0,0,0.3558,0.3522,0.35,0.3501,0.3534,0.36,0.36,0.362,0.3626,0.3645,0,0.3662,0,0.3682,0.3681,0.3682,0,0,0,0.3519,0.3517,0.3554,0.3501,0.3535,0.36,0.3566,0.3624,0.363,0.3653,0.3664,0.3667,0.3683,0.3682,0.3682,0.3809,0.381,0,0,0.3515,0.3493,0.3549,0.3558,0.3562,0.3564,0.3568,0.3628,0.3627,0.3664,0.3669,0.3684,0.3683,0.3683,0.3808,0.3809,0,0,0,0.3514,0.349,0.3525,0.3555,0.3574,0.3566,0.3571,0.3624,0.3641,0.367,0.3685,0.3683,0.3684,0.3807,0.3809,0.3775,0,0,0,0.3511,0.3491,0.3523,0.3508,0.3573,0.3599,0.3566,0.3636,0.3644,0.3684,0.3683,0.3685,0.3807,0.3808,0.3774,0.3723,0,0,0,0.3495,0.3489,0.3504,0.3507,0.3546,0.3599,0.3618,0.3638,0.3654,0.3682,0.3685,0.3806,0.3808,0.3774,0.3724,0.3673,0,0,0,0.3459,0.3559,0.3503,0.3605,0.3546,0.3631,0.3617,0.3679,0.3709,0.3684,0.3807,0.3808,0.3773,0.3724,0.3675,0.3411,0.3385,0,0,0.3588,0.3573,0.3637,0.3592,0.3667,0.362,0.3675,0.3707,0.3738,0.3782,0.3785,0.3775,0.3724,0.3674,0.351,0.3479,0,0,0,0.3681,0.3699,0.3723,0.3734,0.3764,0.3709,0.3738,0.3747,0.3787,0.3766,0.3819,0.3788,0.3756,0.3603,0.358,0.3331,0.3816,0.3816,0.3816,0.3759,0.3768,0.3811,0.3798,0.3806,0.3783,0.377,0.3778,0.382,0.3844,0.3795,0.3778,0.3618,0.3597,0.3346,0.3855,0.3855,0.3855,0.3855,0.3848,0.3829,0.3789,0.383,0.3755,0.3756,0.375,0.3768,0.377,0.3816,0.3788,0.3618,0.3568,0.3311,0.3853,0.3854,0.3854,0.3854,0.3854,0.3814,0.3797,0.3821,0.3788,0.3716,0.3683,0.3597,0.3647,0.3714,0.37,0.3515,0.3512,0.3249,0.3684,0.3683,0.3683,0.3683,0.3682,0.3682,0.3735,0.3761,0.3734,0.3712,0.3646,0.3549,0.3507,0.3482,0.3427,0.3434,0.3432,0.3196,0.3724,0.3689,0.3676,0.3677,0.3678,0.3678,0.3679,0.3649,0.3669,0.3634,0.359,0.3451,0.3245,0.3275,0.3094,0.31,0.3016,0.2801,0.3288,0.3256,0.3273,0.3228,0.3096,0.3096,0.3096,0.3096,0.3553,0.3574,0.3471,0.3378,0.3234,0.3084,0.2743,0.2633,0.2499,0.2349,0.2426,0.2381,0.2416,0.2337,0.2374,0.2313,0.1951,0.195,0.1949,0.3451,0.3449,0.3321,0.3271,0.3101,0.2858,0.2417,0.2044,0.1832,0.1889,0.213,0.2179,0.2113,0.2188,0.2074,0.2146,0.2052,0,0]},{"header":{"parameterUnit":"m.s-1","parameterCategory":2,"la1":30.2992,"la2":30.254,"lo1":-89.0895,"lo2":-89.0443,"dy":0.0025,"dx":0.0025,"nx":19,"ny":19,"refTime":"2026-03-19T09:00:00:Z","depth":"0","parameterNumber":3,"parameterNumberName":"V-component_of_CURRENTS"},"data":[0,0,0,0.0644,0.0646,0.0734,0.0734,0.0876,0.0877,0,0,0,0,0,0,0,0,0,0,0,0.0609,0.0609,0.0643,0.0646,0.0734,0.0734,0.0875,0.0877,0,0,0,0,0,0,0,0,0,0,0,0.0608,0.0609,0.061,0.0646,0.0734,0.0734,0.0875,0.0801,0,0,0,0,0,0,0,0,0,0,0.0711,0.066,0.0609,0.061,0.0647,0.0733,0.0734,0.0797,0.0805,0.0845,0,0.086,0,0.0877,0.0888,0.0888,0,0,0,0.0642,0.0653,0.0695,0.061,0.0647,0.0733,0.0693,0.0801,0.0811,0.0857,0.0862,0.0867,0.088,0.0889,0.0889,0.1136,0.1137,0,0,0.0638,0.061,0.0688,0.0701,0.0673,0.069,0.0696,0.0807,0.0809,0.0862,0.0871,0.0882,0.089,0.0891,0.1134,0.1136,0,0,0,0.0626,0.0606,0.0644,0.0695,0.0712,0.0693,0.0699,0.0803,0.0821,0.0872,0.0884,0.0891,0.0892,0.1133,0.1135,0.1181,0,0,0,0.0623,0.06,0.0642,0.0624,0.0709,0.0751,0.0693,0.0813,0.0826,0.0883,0.0891,0.0894,0.1131,0.1134,0.1176,0.1192,0,0,0,0.0604,0.0597,0.0612,0.0622,0.0665,0.075,0.0773,0.0816,0.0834,0.0888,0.0894,0.113,0.1133,0.1172,0.1185,0.1282,0,0,0,0.0566,0.0592,0.0611,0.065,0.0664,0.0751,0.0772,0.0834,0.088,0.0891,0.1131,0.1135,0.117,0.1181,0.1277,0.1201,0.1218,0,0,0.0581,0.0592,0.062,0.0641,0.0708,0.0738,0.0854,0.0918,0.0958,0.1092,0.1097,0.1178,0.1185,0.1281,0.1411,0.1421,0,0,0,0.0615,0.0627,0.0652,0.0696,0.0763,0.0861,0.092,0.0998,0.1138,0.1005,0.1239,0.1244,0.1301,0.1248,0.1258,0.1187,0.1152,0.1151,0.1151,0.0575,0.0629,0.0678,0.0755,0.0823,0.0957,0.107,0.12,0.12,0.1299,0.1326,0.1492,0.1438,0.1443,0.1373,0.1382,0.1382,0.1382,0.1382,0.0592,0.0636,0.0706,0.077,0.0893,0.1002,0.1235,0.1298,0.1505,0.1463,0.1517,0.1355,0.1455,0.1377,0.1386,0.1386,0.1385,0.1385,0.1384,0.0573,0.0609,0.0645,0.076,0.0893,0.1049,0.1266,0.1419,0.1545,0.1627,0.158,0.1578,0.1469,0.1648,0.1649,0.1649,0.165,0.165,0.165,0.055,0.0596,0.0657,0.0764,0.0853,0.1022,0.1295,0.1441,0.1592,0.1646,0.1645,0.1531,0.1574,0.1517,0.1659,0.1657,0.1656,0.1655,0.1655,0.0572,0.0587,0.0681,0.0756,0.0949,0.1109,0.1305,0.1525,0.1665,0.1716,0.1602,0.1678,0.1661,0.1652,0.1601,0.1755,0.1755,0.1755,0.1755,0.0586,0.06,0.0743,0.0873,0.1033,0.1179,0.1375,0.1519,0.1607,0.1597,0.1607,0.15,0.1499,0.1467,0.1463,0.1405,0.1507,0.1507,0.1507,0.0624,0.0666,0.0781,0.0907,0.1084,0.1249,0.138,0.1427,0.1467,0.1493,0.1533,0.1544,0.1381,0.1385,0.1324,0.1323,0.1225,0,0]}],[{"header":{"parameterUnit":"m.s-1","parameterCategory":2,"la1":30.2992,"la2":30.254,"lo1":-89.0895,"lo2":-89.0443,"dy":0.0025,"dx":0.0025,"nx":19,"ny":19,"refTime":"2026-03-19T09:00:00:Z","depth":"2","parameterNumber":2,"parameterNumberName":"U-component_of_CURRENTS"},"data":[0,0,0,0.2076,0.208,0.2136,0.2135,0.2395,0.2399,0,0,0,0,0,0,0,0,0,0,0,0.207,0.2073,0.2076,0.208,0.2136,0.2135,0.2394,0.2399,0,0,0,0,0,0,0,0,0,0,0,0.2069,0.2072,0.2075,0.2081,0.2136,0.2135,0.2394,0.2289,0,0,0,0,0,0,0,0,0,0,0.2204,0.2127,0.2071,0.2075,0.2082,0.2136,0.2135,0.2281,0.2296,0.2444,0,0.2513,0,0.2496,0.2427,0.2428,0,0,0,0.2014,0.2114,0.2214,0.2076,0.2083,0.2136,0.2092,0.2287,0.2304,0.2465,0.2516,0.2524,0.2501,0.2429,0.2431,0.2843,0.2844,0,0,0.2011,0.1991,0.2202,0.2226,0.2185,0.2091,0.2095,0.2294,0.2306,0.2517,0.2529,0.2505,0.2432,0.2435,0.2841,0.2843,0,0,0,0.2047,0.1988,0.2074,0.2217,0.2232,0.2094,0.2098,0.2294,0.235,0.2532,0.2508,0.2434,0.244,0.284,0.2842,0.2837,0,0,0,0.2041,0.2016,0.2075,0.2049,0.2229,0.2222,0.2093,0.2334,0.2355,0.2507,0.2435,0.2444,0.2838,0.2841,0.2833,0.2805,0,0,0,0.2052,0.2012,0.2064,0.205,0.2112,0.2219,0.2275,0.2335,0.2347,0.2428,0.2445,0.2837,0.284,0.2831,0.2802,0.284,0,0,0,0.1963,0.1958,0.2064,0.2084,0.2113,0.2159,0.2272,0.2307,0.2366,0.2437,0.2838,0.2842,0.283,0.28,0.2838,0.247,0.245,0,0,0.1879,0.1947,0.1967,0.2063,0.2175,0.2141,0.2193,0.234,0.2483,0.2772,0.2779,0.2835,0.2802,0.284,0.2663,0.2636,0,0,0,0.1888,0.1949,0.1988,0.2111,0.217,0.2226,0.2299,0.2417,0.2682,0.2554,0.2904,0.2885,0.2908,0.2684,0.2666,0.2858,0.2857,0.2857,0.2856,0.1828,0.1934,0.2018,0.2167,0.2195,0.2304,0.2381,0.2585,0.2694,0.2858,0.2933,0.3026,0.2791,0.2772,0.3008,0.3008,0.3008,0.3008,0.3008,0.186,0.1993,0.2098,0.2227,0.2356,0.2426,0.2583,0.2691,0.2954,0.3021,0.3044,0.2754,0.2749,0.3009,0.3009,0.3009,0.3009,0.3009,0.3009,0.203,0.2074,0.2175,0.233,0.2481,0.2548,0.265,0.2798,0.2981,0.3027,0.2808,0.2803,0.2976,0.3054,0.3054,0.3054,0.3054,0.3054,0.3054,0.2146,0.2205,0.2297,0.2431,0.253,0.2631,0.2741,0.2791,0.2762,0.2771,0.2768,0.3042,0.304,0.2983,0.3056,0.3056,0.3055,0.3055,0.3055,0.2294,0.2269,0.2381,0.2469,0.2594,0.2534,0.2617,0.2473,0.257,0.2464,0.2628,0.2638,0.2599,0.261,0.2544,0.25,0.25,0.25,0.25,0.2327,0.2338,0.2398,0.2456,0.2525,0.2464,0.219,0.1994,0.2028,0.1958,0.1983,0.1866,0.1898,0.1818,0.1848,0.1766,0.152,0.1518,0.1517,0.2293,0.233,0.2383,0.2444,0.248,0.2302,0.1862,0.1403,0.1261,0.1489,0.1919,0.2413,0.2301,0.2329,0.2257,0.2285,0.2173,0,0]},{"header":{"parameterUnit":"m.s-1","parameterCategory":2,"la1":30.2992,"la2":30.254,"lo1":-89.0895,"lo2":-89.0443,"dy":0.0025,"dx":0.0025,"nx":19,"ny":19,"refTime":"2026-03-19T09:00:00:Z","depth":"2","parameterNumber":3,"parameterNumberName":"V-component_of_CURRENTS"},"data":[0,0,0,-0.0194,-0.0194,-0.0183,-0.0183,-0.0005,-0.0003,0,0,0,0,0,0,0,0,0,0,0,-0.0183,-0.0182,-0.0194,-0.0194,-0.0183,-0.0183,-0.0005,-0.0003,0,0,0,0,0,0,0,0,0,0,0,-0.0183,-0.0182,-0.0182,-0.0194,-0.0183,-0.0183,-0.0006,-0.0052,0,0,0,0,0,0,0,0,0,0,-0.0082,-0.0115,-0.0182,-0.0182,-0.0194,-0.0183,-0.0183,-0.0056,-0.0049,0.0033,0,0.0035,0,0.0013,0.0012,0.0012,0,0,0,-0.0182,-0.0121,-0.0106,-0.0182,-0.0194,-0.0183,-0.0185,-0.0053,-0.0045,0.0043,0.0037,0.0042,0.0016,0.0013,0.0014,0.0312,0.0314,0,0,-0.0183,-0.0187,-0.0112,-0.0101,-0.0187,-0.0185,-0.0184,-0.005,-0.0042,0.0037,0.0045,0.0019,0.0015,0.0016,0.031,0.0312,0,0,0,-0.0192,-0.0187,-0.0179,-0.0107,-0.0122,-0.0185,-0.0184,-0.0048,-0.0042,0.0047,0.0021,0.0016,0.0018,0.0309,0.0311,0.0363,0,0,0,-0.0192,-0.0194,-0.0179,-0.0182,-0.0126,-0.0112,-0.0186,-0.0052,-0.0038,0.0021,0.0016,0.0021,0.0307,0.031,0.0358,0.0396,0,0,0,-0.0184,-0.0194,-0.0189,-0.0182,-0.0184,-0.0116,-0.0103,-0.005,-0.0053,0.0013,0.0021,0.0306,0.0309,0.0353,0.0388,0.0553,0,0,0,-0.0192,-0.0187,-0.0189,-0.0172,-0.0184,-0.0149,-0.0105,-0.0076,-0.0027,0.0017,0.0307,0.0311,0.0351,0.0383,0.0547,0.0467,0.0491,0,0,-0.0191,-0.0188,-0.0172,-0.0173,-0.0133,-0.015,-0.0076,-0.0003,0.0077,0.0272,0.0278,0.036,0.0387,0.0552,0.0691,0.0708,0,0,0,-0.0173,-0.0161,-0.0146,-0.0122,-0.0101,-0.0043,-0.0017,0.0076,0.0273,0.0123,0.0425,0.0442,0.0544,0.0483,0.0499,0.0329,0.0329,0.0328,0.0328,-0.0209,-0.0165,-0.0127,-0.0071,-0.0037,0.0033,0.0145,0.0296,0.0315,0.0451,0.0531,0.0757,0.0693,0.0704,0.0578,0.0579,0.0579,0.0579,0.0579,-0.0204,-0.0153,-0.0102,-0.0046,0.0038,0.0108,0.0339,0.0416,0.072,0.0673,0.077,0.0598,0.0723,0.0585,0.0584,0.0583,0.0582,0.0582,0.0582,-0.0214,-0.0167,-0.0148,-0.0052,0.0076,0.0193,0.0461,0.0625,0.0804,0.0923,0.0919,0.0915,0.0797,0.0986,0.0987,0.0988,0.0989,0.099,0.099,-0.0207,-0.0177,-0.0126,-0.0025,0.0076,0.0277,0.058,0.077,0.0951,0.1013,0.1013,0.0896,0.0883,0.0826,0.1004,0.1002,0.1,0.0999,0.0998,-0.0129,-0.0171,-0.0079,-0.0002,0.0254,0.0489,0.0711,0.0983,0.1162,0.1222,0.1096,0.1089,0.1085,0.107,0.102,0.124,0.124,0.124,0.124,-0.0101,-0.0109,0.0033,0.0183,0.0419,0.0619,0.0936,0.1048,0.1128,0.1088,0.1095,0.0928,0.0922,0.09,0.0889,0.0831,0.1002,0.1001,0.1001,-0.0048,-0.0028,0.0125,0.0248,0.0518,0.0771,0.1005,0.1005,0.0911,0.0989,0.1028,0.1229,0.0992,0.0979,0.0945,0.0928,0.0834,0,0]}],[{"header":{"parameterUnit":"m.s-1","parameterCategory":2,"la1":30.2992,"la2":30.254,"lo1":-89.0895,"lo2":-89.0443,"dy":0.0025,"dx":0.0025,"nx":19,"ny":19,"refTime":"2026-03-19T09:00:00:Z","depth":"4","parameterNumber":2,"parameterNumberName":"U-component_of_CURRENTS"},"data":[0,0,0,-0.0042,-0.0043,-0.0012,-0.0011,0.0122,0.0123,0,0,0,0,0,0,0,0,0,0,0,-0.0046,-0.0046,-0.0042,-0.0043,-0.0012,-0.0011,0.0122,0.0123,0,0,0,0,0,0,0,0,0,0,0,-0.0045,-0.0046,-0.0047,-0.0043,-0.0012,-0.0011,0.0121,0.0085,0,0,0,0,0,0,0,0,0,0,0.0048,0.0019,-0.0046,-0.0047,-0.0043,-0.0012,-0.0011,0.0083,0.0088,0.012,0,0.0096,0,0.0091,0.013,0.013,0,0,0,0.0001,0.0015,0.0009,-0.0047,-0.0044,-0.0012,-0.0013,0.0085,0.009,0.0127,0.0097,0.0102,0.0093,0.013,0.0131,0.0223,0.0223,0,0,-0.0001,-0.0015,0.0005,0.0011,-0.0072,-0.0015,-0.0013,0.0088,0.0088,0.0098,0.0104,0.0095,0.0131,0.0132,0.0222,0.0223,0,0,0,-0.0035,-0.0016,-0.0025,0.0007,-0.0007,-0.0015,-0.0013,0.0085,0.0076,0.0105,0.0097,0.0132,0.0133,0.0222,0.0222,0.0263,0,0,0,-0.0034,-0.004,-0.0026,-0.003,-0.0011,0.0025,-0.0018,0.007,0.008,0.0096,0.0132,0.0134,0.0222,0.0222,0.0262,0.028,0,0,0,-0.0041,-0.004,-0.0051,-0.0032,-0.0041,0.0023,0.0023,0.0072,0.0073,0.013,0.0134,0.0222,0.0222,0.026,0.0277,0.0281,0,0,0,-0.0032,-0.0098,-0.0052,-0.0119,-0.0042,-0.0044,0.0023,0.0075,0.0124,0.0132,0.0222,0.0222,0.026,0.0275,0.0279,0.0232,0,0,0,-0.0118,-0.0108,-0.0148,-0.0108,-0.0149,-0.0043,-0.0011,0.0102,0.0144,0.0202,0.0204,0.0262,0.0277,0.0281,0.0264,0,0,0,0,-0.0177,-0.0197,-0.0206,-0.0212,-0.0189,-0.008,0.0013,0.0083,0.0203,0.0162,0.0262,0.0269,0.027,0.0239,0.0225,0.0225,0.0225,0.0225,0.0225,-0.0265,-0.0257,-0.0294,-0.0261,-0.0227,-0.0082,0.002,0.0142,0.018,0.0253,0.0302,0.0333,0.0302,0.0301,0.0301,0.0302,0.0302,0.0302,0.0302,-0.0345,-0.0353,-0.0304,-0.0326,-0.0208,-0.012,0.0073,0.0169,0.0306,0.0328,0.0327,0.0284,0.0306,0.0305,0.0305,0.0304,0.0304,0.0304,0.0303,-0.0358,-0.0363,-0.0365,-0.034,-0.0217,-0.0064,0.0094,0.0248,0.0339,0.0387,0.0348,0.0355,0.0351,0.0396,0.0396,0.0396,0.0396,0.0396,0.0396,-0.0365,-0.0375,-0.0374,-0.0321,-0.0259,-0.0101,0.014,0.02,0.0309,0.0388,0.0409,0.0364,0.0361,0.0356,0.0398,0.0398,0.0397,0.0397,0.0397,-0.0401,-0.0378,-0.0397,-0.0368,-0.0258,-0.0134,0.0057,0.0206,0.0265,0.0285,0.0372,0.0373,0.035,0.0347,0.034,0.0379,0.0378,0.0378,0,-0.04,-0.0396,-0.0414,-0.0395,-0.0313,-0.0163,-0.0014,0.0069,0.0183,0.0233,0.0168,0.026,0.0264,0.0225,0.0222,0.0206,0,0,0,-0.0412,-0.042,-0.0433,-0.0432,-0.0336,-0.0142,0.0027,0.0094,0.0221,0.0216,0.0366,0.0369,0.0212,0.0403,0.0368,0.0364,0.0353,0,0]},{"header":{"parameterUnit":"m.s-1","parameterCategory":2,"la1":30.2992,"la2":30.254,"lo1":-89.0895,"lo2":-89.0443,"dy":0.0025,"dx":0.0025,"nx":19,"ny":19,"refTime":"2026-03-19T09:00:00:Z","depth":"4","parameterNumber":3,"parameterNumberName":"V-component_of_CURRENTS"},"data":[0,0,0,0.0293,0.0295,0.0387,0.0387,0.0413,0.0413,0,0,0,0,0,0,0,0,0,0,0,0.0263,0.0264,0.0292,0.0295,0.0387,0.0387,0.0413,0.0413,0,0,0,0,0,0,0,0,0,0,0,0.0263,0.0264,0.0265,0.0295,0.0387,0.0387,0.0413,0.0366,0,0,0,0,0,0,0,0,0,0,0.0288,0.0286,0.0264,0.0265,0.0296,0.0387,0.0388,0.0365,0.0369,0.0345,0,0.0366,0,0.0387,0.0413,0.0413,0,0,0,0.0295,0.0283,0.0295,0.0265,0.0297,0.0387,0.0346,0.0368,0.0373,0.0349,0.0367,0.0368,0.0387,0.0412,0.0412,0.0371,0.037,0,0,0.029,0.0289,0.0293,0.0299,0.0328,0.0343,0.0348,0.0372,0.0384,0.0367,0.0369,0.0388,0.0412,0.0412,0.0371,0.0371,0,0,0,0.0275,0.0285,0.03,0.0297,0.0319,0.0345,0.0352,0.0384,0.0386,0.037,0.0388,0.0412,0.0412,0.0372,0.0371,0.0406,0,0,0,0.0272,0.0276,0.0297,0.0298,0.032,0.0369,0.0363,0.0384,0.0388,0.0388,0.0412,0.0412,0.0372,0.0371,0.0406,0.0441,0,0,0,0.0258,0.0275,0.0285,0.0298,0.0336,0.0369,0.0374,0.0386,0.0398,0.0412,0.0412,0.0372,0.0371,0.0406,0.044,0.0407,0,0,0,0.0252,0.0289,0.0286,0.0334,0.0335,0.04,0.0374,0.0426,0.0446,0.0412,0.0372,0.0371,0.0406,0.044,0.0407,0.0366,0,0,0,0.0294,0.0295,0.0322,0.032,0.0384,0.0387,0.042,0.0432,0.0411,0.0359,0.0359,0.0406,0.044,0.0407,0.0309,0,0,0,0,0.0331,0.0347,0.0367,0.0404,0.0441,0.044,0.046,0.0436,0.0402,0.0417,0.0376,0.0396,0.0375,0.0349,0.0366,0.0366,0.0367,0.0367,0.0367,0.0361,0.0383,0.0424,0.0444,0.0478,0.0484,0.0465,0.042,0.042,0.039,0.0402,0.0374,0.0345,0.0364,0.0364,0.0364,0.0364,0.0364,0.0364,0.0391,0.0405,0.0436,0.0496,0.0499,0.0537,0.0464,0.0442,0.0387,0.0389,0.0365,0.036,0.0367,0.0366,0.0366,0.0366,0.0365,0.0365,0.0365,0.0385,0.0394,0.0447,0.0521,0.0573,0.0581,0.0527,0.05,0.043,0.0412,0.0362,0.0383,0.0405,0.0404,0.0404,0.0404,0.0404,0.0404,0.0404,0.0354,0.0394,0.0461,0.055,0.063,0.0644,0.0604,0.0508,0.0445,0.0401,0.0437,0.0387,0.0385,0.0405,0.0404,0.0404,0.0404,0.0404,0.0404,0.0327,0.0365,0.0451,0.0539,0.0665,0.0637,0.0628,0.0459,0.0372,0.028,0.0357,0.036,0.0339,0.0339,0.0357,0.0342,0.0341,0.0341,0,0.0299,0.0321,0.0437,0.0555,0.0588,0.0614,0.0457,0.0341,0.0279,0.0325,0.0291,0.0383,0.0384,0.0363,0.0361,0.0382,0,0,0,0.0262,0.0301,0.0378,0.0512,0.058,0.0439,0.0382,0.0341,0.0375,0.0218,0.0327,0.0331,0.0263,0.0405,0.0379,0.0377,0.0407,0,0]}]]